Estación de Quillota

Ultimos registro cada 15 minutos 53
Estación Fecha / Hora Temperatura Humedad Lluvia Velocidad Dirección Radiación Presion
53 Quillota 08-05-2026 13:00 20,6 47 0 1,3 296 348 1017,3
52 Quillota 08-05-2026 12:45 19,9 47 0 0,4 265 352 1017,6
51 Quillota 08-05-2026 12:30 19,8 49 0 1,3 46 350 1018,1
50 Quillota 08-05-2026 12:15 19,2 51 0 0,4 259 348 1018
49 Quillota 08-05-2026 12:00 18,8 52 0 1,3 281 343 1018,1
48 Quillota 08-05-2026 11:45 18,2 55 0 1,3 180 336 1018,3
47 Quillota 08-05-2026 11:30 17,6 60 0 1,3 286 327 1018,5
46 Quillota 08-05-2026 11:15 16,9 62 0 0,9 267 316 1018,6
45 Quillota 08-05-2026 11:00 16,3 66 0 1,3 216 302 1019,1
44 Quillota 08-05-2026 10:45 15,4 69 0 0,9 205 288 1019
43 Quillota 08-05-2026 10:30 14,3 74 0 0,4 207 269 1019,3
42 Quillota 08-05-2026 10:15 13,2 78 0 0,4 278 251 1019,3
41 Quillota 08-05-2026 10:00 12,2 84 0 0 297 230 1019,2
40 Quillota 08-05-2026 09:45 11,4 88 0 0,4 310 206 1018,9
39 Quillota 08-05-2026 09:30 10,6 92 0 0,4 271 206 1018,9
38 Quillota 08-05-2026 09:15 10,2 94 0 2,2 253 178 1019,1
37 Quillota 08-05-2026 09:00 9,5 95 0 0 256 153 1018,9
36 Quillota 08-05-2026 08:45 8,2 95 0 0,4 185 125 1018,9
35 Quillota 08-05-2026 08:30 6,6 94 0 0 185 93 1019
34 Quillota 08-05-2026 08:15 5 92 0 0 240 58 1019
33 Quillota 08-05-2026 08:00 5,8 94 0 0 145 9 1019,1
32 Quillota 08-05-2026 07:45 4,7 93 0 0,9 69 7 1019,3
31 Quillota 08-05-2026 07:30 4,7 92 0 1,3 171 0 1019,1
30 Quillota 08-05-2026 07:15 4,8 92 0 0 31 0 1019,3
29 Quillota 08-05-2026 07:00 4,6 92 0 0,4 66 0 1019,3
28 Quillota 08-05-2026 06:45 5,4 92 0 0,4 163 0 1019,3
27 Quillota 08-05-2026 06:30 5,9 94 0 0,4 96 0 1019,1
26 Quillota 08-05-2026 06:15 4,4 93 0 0,4 95 0 1019,3
25 Quillota 08-05-2026 06:00 3,9 90 0 0 120 0 1018,9
24 Quillota 08-05-2026 05:45 5,5 93 0 0 109 0 1018,8
23 Quillota 08-05-2026 05:30 4,3 92 0 0,4 111 0 1018,9
22 Quillota 08-05-2026 05:15 4,3 90 0 0,4 170 0 1018,6
21 Quillota 08-05-2026 05:00 4,7 91 0 0 154 0 1018,5
20 Quillota 08-05-2026 04:45 5 93 0 0 154 0 1018,2
19 Quillota 08-05-2026 04:30 4,6 91 0 0 154 0 1018,4
18 Quillota 08-05-2026 04:15 4,7 90 0 0 153 0 1018,6
17 Quillota 08-05-2026 04:00 5,3 90 0 0 153 0 1018,8
16 Quillota 08-05-2026 03:45 5,4 91 0 0,4 153 0 1018,9
15 Quillota 08-05-2026 03:30 5,8 91 0 0,4 175 0 1019,2
14 Quillota 08-05-2026 03:15 6,4 91 0 0 126 0 1019,3
13 Quillota 08-05-2026 03:00 6,1 91 0 0,4 130 0 1019,5
12 Quillota 08-05-2026 02:45 5,9 91 0 0 98 0 1019,6
11 Quillota 08-05-2026 02:30 5,4 89 0 0 98 0 1019,3
10 Quillota 08-05-2026 02:15 6 89 0 0 99 0 1019,6
9 Quillota 08-05-2026 02:00 6,2 89 0 0,4 99 0 1019,8
8 Quillota 08-05-2026 01:45 6,6 89 0 0,4 95 0 1020
7 Quillota 08-05-2026 01:30 7,3 90 0 0 86 0 1020
6 Quillota 08-05-2026 01:15 7,1 89 0 0,4 110 0 1020,4
5 Quillota 08-05-2026 01:00 7,3 89 0 0 116 0 1020,5
4 Quillota 08-05-2026 00:45 7,6 89 0 0,9 165 0 1020,7
3 Quillota 08-05-2026 00:30 7,7 87 0 0,4 100 0 1020,5
2 Quillota 08-05-2026 00:15 8,2 88 0 0,9 185 0 1020,5
1 Quillota 08-05-2026 00:00 8,1 87 0 0,9 185 0 1020,5